contact:dominique.lefevre@mio.osupytheas.fr, maurice.libes@osupytheas.fr, didier.mallarino@osupytheas.fr
Project:EMSO http://www.emso-fr.org/EMSO-France
Depth: 2436.0 m
Title:EMSO Ligure Ouest : Data MII capteur CSTAR
DateTime,Latitude,Longitude,Instrument_Serial,Reference_Counts,Signal_Counts,Corrected_Signal_raw_counts,Calculated_Beam_c_inverse_meters,Internal_thermistor_counts
DateTime,Latitude,Longitude,Instrument_Serial,Reference_Counts,Signal_Counts,Corrected_Signal_raw_counts,Calculated_Beam_c_inverse_meters,Internal_thermistor_counts
2021-07-25T00:01:04,42.805,6.029,CST-1368DR,5359,7422,14852,0.201,551
2021-07-25T00:04:06,42.805,6.029,CST-1368DR,5359,7421,14850,0.201,551
2021-07-25T00:07:08,42.805,6.029,CST-1368DR,5359,7421,14850,0.201,551
2021-07-25T00:10:09,42.805,6.029,CST-1368DR,5359,7421,14851,0.201,551
2021-07-25T00:13:11,42.805,6.029,CST-1368DR,5359,7422,14852,0.201,551
2021-07-25T00:16:12,42.805,6.029,CST-1368DR,5359,7422,14852,0.201,551
2021-07-25T00:19:14,42.805,6.029,CST-1368DR,5359,7422,14853,0.200,551
2021-07-25T00:22:16,42.805,6.029,CST-1368DR,5359,7422,14852,0.201,551
2021-07-25T00:25:17,42.805,6.029,CST-1368DR,5359,7421,14850,0.201,551
2021-07-25T00:28:19,42.805,6.029,CST-1368DR,5359,7422,14852,0.201,551
2021-07-25T00:31:20,42.805,6.029,CST-1368DR,5359,7420,14849,0.201,551
2021-07-25T00:34:22,42.805,6.029,CST-1368DR,5359,7421,14850,0.201,551
2021-07-25T00:37:23,42.805,6.029,CST-1368DR,5359,7421,14850,0.201,551
2021-07-25T00:40:25,42.805,6.029,CST-1368DR,5359,7419,14846,0.202,551
2021-07-25T00:43:27,42.805,6.029,CST-1368DR,5359,7422,14853,0.200,551
2021-07-25T00:46:28,42.805,6.029,CST-1368DR,5359,7421,14851,0.201,551
2021-07-25T00:49:30,42.805,6.029,CST-1368DR,5359,7422,14852,0.201,551
2021-07-25T00:52:31,42.805,6.029,CST-1368DR,5359,7422,14853,0.200,551
2021-07-25T00:55:33,42.805,6.029,CST-1368DR,5359,7421,14850,0.201,551
2021-07-25T00:58:35,42.805,6.029,CST-1368DR,5359,7422,14853,0.200,551
2021-07-25T01:01:36,42.805,6.029,CST-1368DR,5359,7422,14853,0.200,551
2021-07-25T01:04:38,42.805,6.029,CST-1368DR,5359,7421,14850,0.201,551
2021-07-25T01:07:39,42.805,6.029,CST-1368DR,5359,7422,14852,0.201,551
2021-07-25T01:10:41,42.805,6.029,CST-1368DR,5359,7422,14852,0.201,551
2021-07-25T01:13:42,42.805,6.029,CST-1368DR,5359,7421,14850,0.201,551
2021-07-25T01:16:44,42.805,6.029,CST-1368DR,5359,7422,14852,0.201,551
2021-07-25T01:19:46,42.805,6.029,CST-1368DR,5359,7422,14852,0.201,551
2021-07-25T01:22:47,42.805,6.029,CST-1368DR,5359,7419,14846,0.202,551
2021-07-25T01:25:49,42.805,6.029,CST-1368DR,5359,7420,14848,0.202,551
2021-07-25T01:28:50,42.805,6.029,CST-1368DR,5359,7422,14853,0.200,551
2021-07-25T01:31:52,42.805,6.029,CST-1368DR,5359,7422,14852,0.201,551
2021-07-25T01:34:53,42.805,6.029,CST-1368DR,5359,7421,14850,0.201,551
2021-07-25T01:37:55,42.805,6.029,CST-1368DR,5359,7421,14850,0.201,550
2021-07-25T01:40:57,42.805,6.029,CST-1368DR,5359,7420,14848,0.202,551
2021-07-25T01:43:58,42.805,6.029,CST-1368DR,5359,7422,14853,0.200,551
2021-07-25T01:47:00,42.805,6.029,CST-1368DR,5359,7420,14849,0.201,551
2021-07-25T01:50:01,42.805,6.029,CST-1368DR,5359,7419,14846,0.202,551
2021-07-25T01:53:03,42.805,6.029,CST-1368DR,5359,7422,14852,0.201,551
2021-07-25T01:56:05,42.805,6.029,CST-1368DR,5359,7421,14851,0.201,551
2021-07-25T01:59:06,42.805,6.029,CST-1368DR,5359,7418,14845,0.203,551
2021-07-25T02:02:08,42.805,6.029,CST-1368DR,5359,7421,14851,0.201,551
2021-07-25T02:05:09,42.805,6.029,CST-1368DR,5359,7420,14849,0.201,551
2021-07-25T02:08:11,42.805,6.029,CST-1368DR,5359,7419,14846,0.202,551
2021-07-25T02:11:12,42.805,6.029,CST-1368DR,5359,7421,14851,0.201,551
2021-07-25T02:14:14,42.805,6.029,CST-1368DR,5359,7420,14848,0.202,551
2021-07-25T02:17:16,42.805,6.029,CST-1368DR,5359,7421,14850,0.201,551
2021-07-25T02:20:17,42.805,6.029,CST-1368DR,5359,7421,14851,0.201,551
2021-07-25T02:23:19,42.805,6.029,CST-1368DR,5359,7420,14848,0.202,551
2021-07-25T02:26:20,42.805,6.029,CST-1368DR,5359,7420,14848,0.202,551
2021-07-25T02:29:22,42.805,6.029,CST-1368DR,5359,7421,14850,0.201,551
2021-07-25T02:32:24,42.805,6.029,CST-1368DR,5359,7421,14851,0.201,551
2021-07-25T02:35:25,42.805,6.029,CST-1368DR,5359,7418,14845,0.203,551
2021-07-25T02:38:27,42.805,6.029,CST-1368DR,5359,7420,14848,0.202,551
2021-07-25T02:41:28,42.805,6.029,CST-1368DR,5359,7420,14848,0.202,551
2021-07-25T02:44:30,42.805,6.029,CST-1368DR,5359,7420,14848,0.202,551
2021-07-25T02:47:31,42.805,6.029,CST-1368DR,5359,7420,14849,0.201,551
2021-07-25T02:50:33,42.805,6.029,CST-1368DR,5359,7421,14851,0.201,551
2021-07-25T02:53:35,42.805,6.029,CST-1368DR,5359,7421,14850,0.201,551
2021-07-25T02:56:36,42.805,6.029,CST-1368DR,5359,7421,14850,0.201,551
2021-07-25T02:59:38,42.805,6.029,CST-1368DR,5359,7421,14850,0.201,551
2021-07-25T03:02:39,42.805,6.029,CST-1368DR,5359,7421,14851,0.201,551
2021-07-25T03:05:41,42.805,6.029,CST-1368DR,5359,7421,14850,0.201,551
2021-07-25T03:08:43,42.805,6.029,CST-1368DR,5359,7420,14848,0.202,551
2021-07-25T03:11:44,42.805,6.029,CST-1368DR,5359,7420,14849,0.201,551
2021-07-25T03:14:46,42.805,6.029,CST-1368DR,5359,7420,14849,0.201,551
2021-07-25T03:17:47,42.805,6.029,CST-1368DR,5359,7421,14850,0.201,551
2021-07-25T03:20:49,42.805,6.029,CST-1368DR,5359,7421,14850,0.201,551
2021-07-25T03:23:50,42.805,6.029,CST-1368DR,5359,7421,14850,0.201,551
2021-07-25T03:26:52,42.805,6.029,CST-1368DR,5359,7415,14839,0.204,551
2021-07-25T03:29:54,42.805,6.029,CST-1368DR,5359,7420,14849,0.201,551
2021-07-25T03:32:55,42.805,6.029,CST-1368DR,5359,7421,14850,0.201,551
2021-07-25T03:35:57,42.805,6.029,CST-1368DR,5359,7422,14852,0.201,551
2021-07-25T03:38:58,42.805,6.029,CST-1368DR,5359,7421,14850,0.201,550
2021-07-25T03:42:00,42.805,6.029,CST-1368DR,5359,7419,14846,0.202,551
2021-07-25T03:45:01,42.805,6.029,CST-1368DR,5359,7422,14852,0.201,551
2021-07-25T03:48:03,42.805,6.029,CST-1368DR,5359,7421,14850,0.201,551
2021-07-25T03:51:05,42.805,6.029,CST-1368DR,5359,7419,14847,0.202,551
2021-07-25T03:54:06,42.805,6.029,CST-1368DR,5359,7420,14848,0.202,551
2021-07-25T03:57:08,42.805,6.029,CST-1368DR,5359,7420,14849,0.201,551
2021-07-25T04:00:09,42.805,6.029,CST-1368DR,5359,7418,14845,0.203,551
2021-07-25T04:03:11,42.805,6.029,CST-1368DR,5359,7422,14852,0.201,551
2021-07-25T04:06:13,42.805,6.029,CST-1368DR,5359,7420,14849,0.201,551
2021-07-25T04:09:14,42.805,6.029,CST-1368DR,5359,7420,14848,0.202,551
2021-07-25T04:12:16,42.805,6.029,CST-1368DR,5359,7420,14849,0.201,551
2021-07-25T04:15:17,42.805,6.029,CST-1368DR,5359,7419,14846,0.202,551
2021-07-25T04:18:19,42.805,6.029,CST-1368DR,5359,7420,14848,0.202,551
2021-07-25T04:21:20,42.805,6.029,CST-1368DR,5359,7419,14847,0.202,551
2021-07-25T04:24:22,42.805,6.029,CST-1368DR,5359,7419,14846,0.202,551
2021-07-25T04:27:24,42.805,6.029,CST-1368DR,5359,7420,14849,0.201,551
2021-07-25T04:30:25,42.805,6.029,CST-1368DR,5358,7420,14850,0.201,551
2021-07-25T04:33:27,42.805,6.029,CST-1368DR,5359,7419,14847,0.202,551
2021-07-25T04:36:28,42.805,6.029,CST-1368DR,5359,7420,14849,0.201,551
2021-07-25T04:39:30,42.805,6.029,CST-1368DR,5358,7419,14849,0.201,551
2021-07-25T04:42:32,42.805,6.029,CST-1368DR,5359,7419,14846,0.202,551
2021-07-25T04:45:33,42.805,6.029,CST-1368DR,5359,7420,14849,0.201,551
2021-07-25T04:48:35,42.805,6.029,CST-1368DR,5359,7420,14849,0.201,551
2021-07-25T04:51:36,42.805,6.029,CST-1368DR,5358,7418,14847,0.202,551
2021-07-25T04:54:38,42.805,6.029,CST-1368DR,5359,7419,14847,0.202,551
2021-07-25T04:57:39,42.805,6.029,CST-1368DR,5359,7420,14848,0.202,551
2021-07-25T05:00:41,42.805,6.029,CST-1368DR,5359,7420,14849,0.201,551
2021-07-25T05:03:43,42.805,6.029,CST-1368DR,5358,7420,14851,0.201,551
2021-07-25T05:06:44,42.805,6.029,CST-1368DR,5359,7420,14848,0.202,551
2021-07-25T05:09:46,42.805,6.029,CST-1368DR,5358,7419,14850,0.201,551
2021-07-25T05:12:47,42.805,6.029,CST-1368DR,5358,7420,14850,0.201,551
2021-07-25T05:15:49,42.805,6.029,CST-1368DR,5358,7419,14849,0.201,551
2021-07-25T05:18:50,42.805,6.029,CST-1368DR,5358,7414,14839,0.204,551
2021-07-25T05:21:52,42.805,6.029,CST-1368DR,5358,7418,14847,0.202,551
2021-07-25T05:24:54,42.805,6.029,CST-1368DR,5358,7417,14845,0.203,551
2021-07-25T05:27:55,42.805,6.029,CST-1368DR,5358,7418,14847,0.202,551
2021-07-25T05:30:57,42.805,6.029,CST-1368DR,5358,7417,14846,0.202,551
2021-07-25T05:33:58,42.805,6.029,CST-1368DR,5358,7419,14849,0.201,551
2021-07-25T05:37:00,42.805,6.029,CST-1368DR,5358,7419,14848,0.202,551
2021-07-25T05:40:02,42.805,6.029,CST-1368DR,5358,7419,14849,0.201,551
2021-07-25T05:43:03,42.805,6.029,CST-1368DR,5358,7416,14843,0.203,551
2021-07-25T05:46:05,42.805,6.029,CST-1368DR,5358,7420,14851,0.201,551
2021-07-25T05:49:06,42.805,6.029,CST-1368DR,5358,7420,14851,0.201,551
2021-07-25T05:52:08,42.805,6.029,CST-1368DR,5358,7419,14850,0.201,551
2021-07-25T05:55:09,42.805,6.029,CST-1368DR,5358,7420,14851,0.201,551
2021-07-25T05:58:11,42.805,6.029,CST-1368DR,5358,7419,14849,0.201,551
2021-07-25T06:01:13,42.805,6.029,CST-1368DR,5358,7419,14850,0.201,551
2021-07-25T06:04:14,42.805,6.029,CST-1368DR,5358,7419,14849,0.201,551
2021-07-25T06:07:16,42.805,6.029,CST-1368DR,5358,7418,14847,0.202,551
2021-07-25T06:10:17,42.805,6.029,CST-1368DR,5358,7419,14849,0.201,551
2021-07-25T06:13:19,42.805,6.029,CST-1368DR,5358,7419,14848,0.202,551
2021-07-25T06:16:21,42.805,6.029,CST-1368DR,5358,7419,14848,0.202,551
2021-07-25T06:19:22,42.805,6.029,CST-1368DR,5358,7419,14849,0.201,551
2021-07-25T06:22:24,42.805,6.029,CST-1368DR,5358,7419,14849,0.201,551
2021-07-25T06:25:25,42.805,6.029,CST-1368DR,5358,7418,14847,0.202,551
2021-07-25T06:28:27,42.805,6.029,CST-1368DR,5358,7419,14849,0.201,551
2021-07-25T06:31:28,42.805,6.029,CST-1368DR,5358,7419,14849,0.201,551
2021-07-25T06:34:30,42.805,6.029,CST-1368DR,5358,7419,14849,0.201,551
2021-07-25T06:37:32,42.805,6.029,CST-1368DR,5358,7418,14848,0.202,551
2021-07-25T06:40:33,42.805,6.029,CST-1368DR,5358,7419,14849,0.201,551
2021-07-25T06:43:35,42.805,6.029,CST-1368DR,5358,7419,14848,0.202,551
2021-07-25T06:46:36,42.805,6.029,CST-1368DR,5358,7418,14847,0.202,551
2021-07-25T06:49:38,42.805,6.029,CST-1368DR,5358,7419,14849,0.201,551
2021-07-25T06:52:39,42.805,6.029,CST-1368DR,5358,7416,14844,0.203,551
2021-07-25T06:55:41,42.805,6.029,CST-1368DR,5358,7418,14847,0.202,550
2021-07-25T06:58:43,42.805,6.029,CST-1368DR,5358,7418,14848,0.202,551
2021-07-25T07:01:44,42.805,6.029,CST-1368DR,5358,7417,14846,0.202,551
2021-07-25T07:04:46,42.805,6.029,CST-1368DR,5358,7419,14848,0.202,551
2021-07-25T07:07:47,42.805,6.029,CST-1368DR,5358,7417,14846,0.202,551
2021-07-25T07:10:49,42.805,6.029,CST-1368DR,5358,7417,14844,0.203,551
2021-07-25T07:13:51,42.805,6.029,CST-1368DR,5358,7418,14847,0.202,551
2021-07-25T07:16:52,42.805,6.029,CST-1368DR,5358,7417,14846,0.202,551
2021-07-25T07:19:54,42.805,6.029,CST-1368DR,5358,7417,14846,0.202,551
2021-07-25T07:22:55,42.805,6.029,CST-1368DR,5358,7418,14847,0.202,551
2021-07-25T07:25:57,42.805,6.029,CST-1368DR,5358,7419,14849,0.201,551
2021-07-25T07:28:58,42.805,6.029,CST-1368DR,5358,7417,14846,0.202,551
2021-07-25T07:32:00,42.805,6.029,CST-1368DR,5358,7418,14847,0.202,551
2021-07-25T07:35:02,42.805,6.029,CST-1368DR,5358,7418,14847,0.202,551
2021-07-25T07:38:03,42.805,6.029,CST-1368DR,5358,7417,14845,0.203,551
2021-07-25T07:41:05,42.805,6.029,CST-1368DR,5358,7417,14845,0.203,551
2021-07-25T07:44:06,42.805,6.029,CST-1368DR,5358,7418,14847,0.202,551
2021-07-25T07:47:08,42.805,6.029,CST-1368DR,5358,7419,14849,0.201,551
2021-07-25T07:50:09,42.805,6.029,CST-1368DR,5358,7417,14846,0.202,551
2021-07-25T07:53:11,42.805,6.029,CST-1368DR,5358,7418,14847,0.202,551
2021-07-25T07:56:13,42.805,6.029,CST-1368DR,5358,7417,14845,0.203,551
2021-07-25T07:59:14,42.805,6.029,CST-1368DR,5358,7418,14847,0.202,551
2021-07-25T08:02:16,42.805,6.029,CST-1368DR,5358,7417,14845,0.203,551
2021-07-25T08:05:17,42.805,6.029,CST-1368DR,5358,7416,14844,0.203,551
2021-07-25T08:08:19,42.805,6.029,CST-1368DR,5358,7416,14844,0.203,551
2021-07-25T08:11:21,42.805,6.029,CST-1368DR,5358,7418,14848,0.202,551
2021-07-25T08:14:22,42.805,6.029,CST-1368DR,5358,7418,14847,0.202,551
2021-07-25T08:17:24,42.805,6.029,CST-1368DR,5358,7416,14844,0.203,551
2021-07-25T08:20:25,42.805,6.029,CST-1368DR,5358,7417,14845,0.203,551
2021-07-25T08:23:27,42.805,6.029,CST-1368DR,5358,7418,14847,0.202,551
2021-07-25T08:26:28,42.805,6.029,CST-1368DR,5358,7417,14844,0.203,551
2021-07-25T08:29:30,42.805,6.029,CST-1368DR,5358,7418,14848,0.202,551
2021-07-25T08:32:32,42.805,6.029,CST-1368DR,5358,7418,14847,0.202,551
2021-07-25T08:35:33,42.805,6.029,CST-1368DR,5358,7418,14847,0.202,551
2021-07-25T08:38:35,42.805,6.029,CST-1368DR,5358,7418,14847,0.202,551
2021-07-25T08:41:36,42.805,6.029,CST-1368DR,5358,7418,14847,0.202,551
2021-07-25T08:44:38,42.805,6.029,CST-1368DR,5358,7418,14847,0.202,551
2021-07-25T08:47:40,42.805,6.029,CST-1368DR,5358,7419,14849,0.201,551
2021-07-25T08:50:41,42.805,6.029,CST-1368DR,5358,7419,14849,0.201,551
2021-07-25T08:53:43,42.805,6.029,CST-1368DR,5358,7416,14843,0.203,551
2021-07-25T08:56:44,42.805,6.029,CST-1368DR,5358,7417,14846,0.202,551
2021-07-25T08:59:46,42.805,6.029,CST-1368DR,5358,7417,14845,0.203,551
2021-07-25T09:02:47,42.805,6.029,CST-1368DR,5358,7417,14845,0.203,551
2021-07-25T09:05:49,42.805,6.029,CST-1368DR,5358,7413,14838,0.204,551
2021-07-25T09:08:51,42.805,6.029,CST-1368DR,5358,7415,14841,0.204,551
2021-07-25T09:11:52,42.805,6.029,CST-1368DR,5358,7417,14844,0.203,551
2021-07-25T09:14:54,42.805,6.029,CST-1368DR,5358,7417,14845,0.203,551
2021-07-25T09:17:55,42.805,6.029,CST-1368DR,5358,7417,14845,0.203,550
2021-07-25T09:20:57,42.805,6.029,CST-1368DR,5358,7418,14847,0.202,551
2021-07-25T09:23:58,42.805,6.029,CST-1368DR,5358,7407,14825,0.208,551
2021-07-25T09:27:00,42.805,6.029,CST-1368DR,5358,7417,14846,0.202,551
2021-07-25T09:30:02,42.805,6.029,CST-1368DR,5358,7417,14845,0.203,551
2021-07-25T09:33:03,42.805,6.029,CST-1368DR,5358,7418,14847,0.202,551
2021-07-25T09:36:05,42.805,6.029,CST-1368DR,5358,7416,14843,0.203,551
2021-07-25T09:39:06,42.805,6.029,CST-1368DR,5358,7418,14847,0.202,551
2021-07-25T09:42:08,42.805,6.029,CST-1368DR,5358,7417,14845,0.203,551
2021-07-25T09:45:10,42.805,6.029,CST-1368DR,5358,7417,14845,0.203,551
2021-07-25T09:48:11,42.805,6.029,CST-1368DR,5358,7418,14847,0.202,551
2021-07-25T09:51:13,42.805,6.029,CST-1368DR,5358,7416,14843,0.203,551
2021-07-25T09:54:14,42.805,6.029,CST-1368DR,5358,7416,14843,0.203,551
2021-07-25T09:57:16,42.805,6.029,CST-1368DR,5358,7417,14846,0.202,551
2021-07-25T10:00:17,42.805,6.029,CST-1368DR,5358,7416,14844,0.203,551
2021-07-25T10:03:19,42.805,6.029,CST-1368DR,5358,7417,14845,0.203,551
2021-07-25T10:06:21,42.805,6.029,CST-1368DR,5358,7419,14849,0.201,551
2021-07-25T10:09:22,42.805,6.029,CST-1368DR,5358,7417,14845,0.203,551
2021-07-25T10:12:24,42.805,6.029,CST-1368DR,5358,7418,14847,0.202,551
2021-07-25T10:15:25,42.805,6.029,CST-1368DR,5358,7416,14844,0.203,551
2021-07-25T10:18:27,42.805,6.029,CST-1368DR,5358,7417,14845,0.203,551
2021-07-25T10:21:28,42.805,6.029,CST-1368DR,5358,7417,14844,0.203,551
2021-07-25T10:24:30,42.805,6.029,CST-1368DR,5358,7418,14848,0.202,551
2021-07-25T10:27:32,42.805,6.029,CST-1368DR,5358,7418,14847,0.202,551
2021-07-25T10:30:33,42.805,6.029,CST-1368DR,5358,7418,14847,0.202,551
2021-07-25T10:33:35,42.805,6.029,CST-1368DR,5358,7418,14847,0.202,551
2021-07-25T10:36:36,42.805,6.029,CST-1368DR,5358,7418,14848,0.202,551
2021-07-25T10:39:38,42.805,6.029,CST-1368DR,5358,7418,14847,0.202,551
2021-07-25T10:42:40,42.805,6.029,CST-1368DR,5358,7417,14846,0.202,551
2021-07-25T10:45:41,42.805,6.029,CST-1368DR,5358,7417,14846,0.202,551
2021-07-25T10:48:43,42.805,6.029,CST-1368DR,5358,7417,14846,0.202,551
2021-07-25T10:51:44,42.805,6.029,CST-1368DR,5358,7418,14848,0.202,551
2021-07-25T10:54:46,42.805,6.029,CST-1368DR,5358,7418,14847,0.202,551
2021-07-25T10:57:47,42.805,6.029,CST-1368DR,5358,7418,14848,0.202,551
2021-07-25T11:00:49,42.805,6.029,CST-1368DR,5358,7417,14845,0.203,551
2021-07-25T11:03:51,42.805,6.029,CST-1368DR,5358,7419,14848,0.202,551
2021-07-25T11:06:52,42.805,6.029,CST-1368DR,5358,7418,14847,0.202,551
2021-07-25T11:09:54,42.805,6.029,CST-1368DR,5358,7418,14847,0.202,551
2021-07-25T11:12:55,42.805,6.029,CST-1368DR,5358,7417,14846,0.202,551
2021-07-25T11:15:57,42.805,6.029,CST-1368DR,5358,7416,14844,0.203,551
2021-07-25T11:18:59,42.805,6.029,CST-1368DR,5357,7418,14849,0.201,551
2021-07-25T11:22:00,42.805,6.029,CST-1368DR,5358,7418,14847,0.202,551
2021-07-25T11:25:02,42.805,6.029,CST-1368DR,5358,7417,14844,0.203,551
2021-07-25T11:28:03,42.805,6.029,CST-1368DR,5358,7417,14844,0.203,551
2021-07-25T11:31:05,42.805,6.029,CST-1368DR,5358,7417,14846,0.202,551
2021-07-25T11:34:06,42.805,6.029,CST-1368DR,5358,7418,14847,0.202,551
2021-07-25T11:37:08,42.805,6.029,CST-1368DR,5357,7417,14847,0.202,551
2021-07-25T11:40:10,42.805,6.029,CST-1368DR,5358,7418,14848,0.202,551
2021-07-25T11:43:11,42.805,6.029,CST-1368DR,5358,7417,14845,0.203,551
2021-07-25T11:46:13,42.805,6.029,CST-1368DR,5357,7415,14844,0.203,551
2021-07-25T11:49:14,42.805,6.029,CST-1368DR,5358,7418,14847,0.202,551
2021-07-25T11:52:16,42.805,6.029,CST-1368DR,5357,7417,14847,0.202,551
2021-07-25T11:55:17,42.805,6.029,CST-1368DR,5358,7417,14845,0.203,551
2021-07-25T11:58:19,42.805,6.029,CST-1368DR,5357,7417,14848,0.202,551
2021-07-25T12:01:21,42.805,6.029,CST-1368DR,5358,7417,14845,0.203,551
2021-07-25T12:04:22,42.805,6.029,CST-1368DR,5357,7417,14847,0.202,551
2021-07-25T12:07:24,42.805,6.029,CST-1368DR,5357,7417,14848,0.202,551
2021-07-25T12:10:25,42.805,6.029,CST-1368DR,5358,7416,14844,0.203,551
2021-07-25T12:13:27,42.805,6.029,CST-1368DR,5358,7417,14845,0.203,551
2021-07-25T12:16:29,42.805,6.029,CST-1368DR,5357,7416,14846,0.202,551
2021-07-25T12:19:30,42.805,6.029,CST-1368DR,5357,7418,14849,0.201,551
2021-07-25T12:22:32,42.805,6.029,CST-1368DR,5358,7416,14843,0.203,551
2021-07-25T12:25:33,42.805,6.029,CST-1368DR,5357,7416,14846,0.202,551
2021-07-25T12:28:35,42.805,6.029,CST-1368DR,5357,7416,14846,0.202,551
2021-07-25T12:31:36,42.805,6.029,CST-1368DR,5357,7417,14847,0.202,551
2021-07-25T12:34:38,42.805,6.029,CST-1368DR,5357,7417,14847,0.202,551
2021-07-25T12:37:40,42.805,6.029,CST-1368DR,5357,7415,14844,0.203,551
2021-07-25T12:40:41,42.805,6.029,CST-1368DR,5357,7418,14849,0.201,551
2021-07-25T12:43:43,42.805,6.029,CST-1368DR,5357,7415,14844,0.203,551
2021-07-25T12:46:44,42.805,6.029,CST-1368DR,5357,7416,14845,0.203,551
2021-07-25T12:49:46,42.805,6.029,CST-1368DR,5357,7417,14847,0.202,551
2021-07-25T12:52:48,42.805,6.029,CST-1368DR,5357,7417,14848,0.202,551
2021-07-25T12:55:49,42.805,6.029,CST-1368DR,5357,7417,14847,0.202,551
2021-07-25T12:58:51,42.805,6.029,CST-1368DR,5357,7416,14846,0.202,551
2021-07-25T13:01:52,42.805,6.029,CST-1368DR,5357,7416,14846,0.202,551
2021-07-25T13:04:54,42.805,6.029,CST-1368DR,5357,7417,14848,0.202,551
2021-07-25T13:07:55,42.805,6.029,CST-1368DR,5357,7416,14845,0.203,551
2021-07-25T13:10:57,42.805,6.029,CST-1368DR,5357,7415,14844,0.203,551
2021-07-25T13:13:59,42.805,6.029,CST-1368DR,5357,7416,14845,0.203,551
2021-07-25T13:17:00,42.805,6.029,CST-1368DR,5357,7417,14847,0.202,551
2021-07-25T13:20:02,42.805,6.029,CST-1368DR,5357,7417,14847,0.202,551
2021-07-25T13:23:03,42.805,6.029,CST-1368DR,5357,7417,14848,0.202,551
2021-07-25T13:26:05,42.805,6.029,CST-1368DR,5357,7416,14846,0.202,551
2021-07-25T13:29:06,42.805,6.029,CST-1368DR,5357,7416,14846,0.202,551
2021-07-25T13:32:08,42.805,6.029,CST-1368DR,5357,7415,14844,0.203,551
2021-07-25T13:35:10,42.805,6.029,CST-1368DR,5357,7417,14847,0.202,551
2021-07-25T13:38:11,42.805,6.029,CST-1368DR,5357,7416,14846,0.202,551
2021-07-25T13:41:13,42.805,6.029,CST-1368DR,5357,7416,14845,0.203,551
2021-07-25T13:44:14,42.805,6.029,CST-1368DR,5357,7416,14846,0.202,551
2021-07-25T13:47:16,42.805,6.029,CST-1368DR,5357,7417,14847,0.202,551
2021-07-25T13:50:18,42.805,6.029,CST-1368DR,5357,7416,14846,0.202,551
2021-07-25T13:53:19,42.805,6.029,CST-1368DR,5357,7416,14846,0.202,551
2021-07-25T13:56:21,42.805,6.029,CST-1368DR,5357,7416,14846,0.202,551
2021-07-25T13:59:22,42.805,6.029,CST-1368DR,5357,7417,14847,0.202,551
2021-07-25T14:02:24,42.805,6.029,CST-1368DR,5357,7416,14846,0.202,551
2021-07-25T14:05:25,42.805,6.029,CST-1368DR,5357,7416,14846,0.202,551
2021-07-25T14:08:27,42.805,6.029,CST-1368DR,5357,7416,14845,0.203,551
2021-07-25T14:11:29,42.805,6.029,CST-1368DR,5357,7415,14844,0.203,551
2021-07-25T14:14:30,42.805,6.029,CST-1368DR,5357,7416,14846,0.202,551
2021-07-25T14:17:32,42.805,6.029,CST-1368DR,5357,7417,14847,0.202,551
2021-07-25T14:20:33,42.805,6.029,CST-1368DR,5357,7414,14841,0.204,551
2021-07-25T14:23:35,42.805,6.029,CST-1368DR,5357,7415,14844,0.203,551
2021-07-25T14:26:37,42.805,6.029,CST-1368DR,5357,7416,14846,0.202,551
2021-07-25T14:29:38,42.805,6.029,CST-1368DR,5357,7415,14843,0.203,551
2021-07-25T14:32:40,42.805,6.029,CST-1368DR,5357,7416,14845,0.203,551
2021-07-25T14:35:41,42.805,6.029,CST-1368DR,5357,7416,14845,0.203,551
2021-07-25T14:38:43,42.805,6.029,CST-1368DR,5357,7415,14844,0.203,551
2021-07-25T14:41:44,42.805,6.029,CST-1368DR,5357,7416,14846,0.202,551
2021-07-25T14:44:46,42.805,6.029,CST-1368DR,5357,7415,14844,0.203,551
2021-07-25T14:47:48,42.805,6.029,CST-1368DR,5357,7414,14842,0.203,551
2021-07-25T14:50:49,42.805,6.029,CST-1368DR,5357,7415,14843,0.203,551
2021-07-25T14:53:51,42.805,6.029,CST-1368DR,5357,7415,14843,0.203,551
2021-07-25T14:56:52,42.805,6.029,CST-1368DR,5357,7414,14841,0.204,551
2021-07-25T14:59:54,42.805,6.029,CST-1368DR,5357,7415,14843,0.203,551
2021-07-25T15:02:55,42.805,6.029,CST-1368DR,5357,7415,14844,0.203,551
2021-07-25T15:05:57,42.805,6.029,CST-1368DR,5357,7415,14844,0.203,551
2021-07-25T15:08:59,42.805,6.029,CST-1368DR,5357,7414,14841,0.204,551
2021-07-25T15:12:00,42.805,6.029,CST-1368DR,5357,7414,14841,0.204,551
2021-07-25T15:15:02,42.805,6.029,CST-1368DR,5357,7413,14839,0.204,551
2021-07-25T15:18:03,42.805,6.029,CST-1368DR,5357,7415,14843,0.203,551
2021-07-25T15:21:05,42.805,6.029,CST-1368DR,5357,7414,14841,0.204,551
2021-07-25T15:24:07,42.805,6.029,CST-1368DR,5357,7414,14841,0.204,551
2021-07-25T15:27:08,42.805,6.029,CST-1368DR,5357,7414,14842,0.203,551
2021-07-25T15:30:10,42.805,6.029,CST-1368DR,5357,7415,14843,0.203,551
2021-07-25T15:33:11,42.805,6.029,CST-1368DR,5357,7413,14840,0.204,551
2021-07-25T15:36:13,42.805,6.029,CST-1368DR,5357,7415,14843,0.203,551
2021-07-25T15:39:14,42.805,6.029,CST-1368DR,5357,7414,14842,0.203,551
2021-07-25T15:42:16,42.805,6.029,CST-1368DR,5357,7414,14842,0.203,551
2021-07-25T15:45:18,42.805,6.029,CST-1368DR,5357,7414,14841,0.204,551
2021-07-25T15:48:19,42.805,6.029,CST-1368DR,5357,7415,14844,0.203,551
2021-07-25T15:51:21,42.805,6.029,CST-1368DR,5357,7415,14843,0.203,551
2021-07-25T15:54:22,42.805,6.029,CST-1368DR,5357,7414,14842,0.203,551
2021-07-25T15:57:24,42.805,6.029,CST-1368DR,5357,7415,14844,0.203,551
2021-07-25T16:00:25,42.805,6.029,CST-1368DR,5357,7413,14840,0.204,551
2021-07-25T16:03:27,42.805,6.029,CST-1368DR,5357,7413,14840,0.204,551
2021-07-25T16:06:29,42.805,6.029,CST-1368DR,5357,7415,14843,0.203,551
2021-07-25T16:09:30,42.805,6.029,CST-1368DR,5357,7415,14844,0.203,551
2021-07-25T16:12:32,42.805,6.029,CST-1368DR,5357,7415,14844,0.203,551
2021-07-25T16:15:33,42.805,6.029,CST-1368DR,5357,7410,14833,0.206,551
2021-07-25T16:18:35,42.805,6.029,CST-1368DR,5357,7413,14839,0.204,551
2021-07-25T16:21:37,42.805,6.029,CST-1368DR,5357,7415,14843,0.203,551
2021-07-25T16:24:38,42.805,6.029,CST-1368DR,5357,7412,14838,0.204,551
2021-07-25T16:27:40,42.805,6.029,CST-1368DR,5357,7415,14844,0.203,551
2021-07-25T16:30:41,42.805,6.029,CST-1368DR,5357,7410,14834,0.205,550
2021-07-25T16:33:43,42.805,6.029,CST-1368DR,5357,7414,14841,0.204,551
2021-07-25T16:36:44,42.805,6.029,CST-1368DR,5357,7413,14839,0.204,551
2021-07-25T16:39:46,42.805,6.029,CST-1368DR,5357,7413,14839,0.204,551
2021-07-25T16:42:48,42.805,6.029,CST-1368DR,5357,7414,14842,0.203,551
2021-07-25T16:45:49,42.805,6.029,CST-1368DR,5357,7414,14841,0.204,551
2021-07-25T16:48:51,42.805,6.029,CST-1368DR,5357,7415,14843,0.203,551
2021-07-25T16:51:52,42.805,6.029,CST-1368DR,5357,7412,14837,0.205,551